This is the latest recevied weather packets stored in our database for station/object N2WH. If no packets are shown the sender has not sent any weather packets the latest 10 day(s).
| Time | Temp. | Humidity | Pressure | Rain* | Wind** | Luminosity | Snow |
|---|---|---|---|---|---|---|---|
| 1777840057 | 14.44° C | 32% | 1011.4 hPa | 0 mm | - | 200 W/m² | - |
| 1777839755 | 15° C | 32% | 1011.4 hPa | 0 mm | - | 373 W/m² | - |
| 1777839452 | 14.44° C | 33% | 1011.3 hPa | 0 mm | - | 429 W/m² | - |
| 1777839150 | 13.89° C | 34% | 1011.2 hPa | 0 mm | - | 130 W/m² | - |
| 1777838846 | 15° C | 32% | 1011.4 hPa | 0 mm | - | 107 W/m² | - |
| 1777838543 | 13.89° C | 34% | 1011.5 hPa | 0 mm | - | 531 W/m² | - |
| 1777838239 | 13.89° C | 34% | 1011.4 hPa | 0 mm | - | 101 W/m² | - |
| 1777837936 | 14.44° C | 34% | 1011.6 hPa | 0 mm | - | 127 W/m² | - |
| 1777837634 | 15.56° C | 32% | 1011.5 hPa | 0 mm | - | 142 W/m² | - |
| 1777837329 | 15.56° C | 32% | 1011.2 hPa | 0 mm | - | 649 W/m² | - |
| 1777837026 | 15° C | 31% | 1011.5 hPa | 0 mm | - | 635 W/m² | - |
| 1777836722 | 15° C | 32% | 1011.5 hPa | 0 mm | - | 563 W/m² | - |
| 1777836417 | 15.56° C | 32% | 1011.9 hPa | 0 mm | - | 619 W/m² | - |
| 1777836113 | 15° C | 32% | 1011.8 hPa | 0 mm | - | 591 W/m² | - |
| 1777835810 | 15° C | 32% | 1011.6 hPa | 0 mm | - | 587 W/m² | - |
| 1777835507 | 14.44° C | 33% | 1012 hPa | 0 mm | - | 624 W/m² | - |
| 1777835204 | 14.44° C | 34% | 1011.9 hPa | 0 mm | - | 650 W/m² | - |
| 1777834901 | 14.44° C | 33% | 1012 hPa | 0 mm | - | 668 W/m² | - |
| 1777834597 | 13.33° C | 35% | 1012.1 hPa | 0 mm | - | 698 W/m² | - |
| 1777834292 | 13.89° C | 35% | 1011.9 hPa | 0 mm | - | 149 W/m² | - |
| 1777833988 | 13.89° C | 35% | 1011.7 hPa | 0 mm | - | 716 W/m² | - |
| 1777833685 | 13.33° C | 36% | 1012.1 hPa | 0 mm | - | 242 W/m² | - |
| 1777833381 | 13.89° C | 34% | 1011.9 hPa | 0 mm | - | 564 W/m² | - |
| 1777833078 | 13.89° C | 36% | 1012.1 hPa | 0 mm | - | 224 W/m² | - |
| 1777832777 | 14.44° C | 34% | 1012 hPa | 0 mm | - | 788 W/m² | - |
* Rain latest hour (hover to see other rain measurements)
** Current wind speed in m/s (hover to see current wind gust speed)